TimeCST,TemperatureF,Dew PointF,Humidity,Sea Level PressureIn,VisibilityMPH,Wind Direction,Wind SpeedMPH,Gust SpeedMPH,PrecipitationIn,Events,Conditions,WindDirDegrees,DateUTC
12:53 AM,36.0,34.0,93,29.99,10.0,Calm,Calm,-,N/A,,Overcast,0,2012-11-07 06:53:00
1:53 AM,36.0,34.0,93,30.00,10.0,Calm,Calm,-,N/A,,Overcast,0,2012-11-07 07:53:00
2:53 AM,36.0,34.0,93,30.01,10.0,Calm,Calm,-,N/A,,Overcast,0,2012-11-07 08:53:00
3:53 AM,36.0,34.0,93,30.03,10.0,Calm,Calm,-,N/A,,Overcast,0,2012-11-07 09:53:00
4:53 AM,36.0,33.1,89,30.04,10.0,Calm,Calm,-,N/A,,Overcast,0,2012-11-07 10:53:00
5:34 AM,35.6,33.8,93,30.01,10.0,Calm,Calm,-,N/A,,Overcast,0,2012-11-07 11:34:00
5:53 AM,35.1,34.0,96,30.06,10.0,Calm,Calm,-,N/A,,Overcast,0,2012-11-07 11:53:00
6:45 AM,35.6,33.8,93,30.03,2.0,Calm,Calm,-,N/A,,Overcast,0,2012-11-07 12:45:00
6:53 AM,35.1,34.0,96,30.08,1.5,Calm,Calm,-,N/A,,Overcast,0,2012-11-07 12:53:00
7:09 AM,35.6,35.6,100,30.04,1.0,Calm,Calm,-,N/A,,Overcast,0,2012-11-07 13:09:00
7:17 AM,35.6,33.8,93,30.05,0.8,Calm,Calm,-,N/A,,Mist,0,2012-11-07 13:17:00
7:53 AM,36.0,35.1,97,30.09,0.5,Calm,Calm,-,N/A,Fog,Fog,0,2012-11-07 13:53:00
8:13 AM,35.6,35.6,100,30.05,1.0,SW,3.5,-,N/A,,Overcast,230,2012-11-07 14:13:00
8:32 AM,35.6,35.6,100,30.06,0.8,Calm,Calm,-,N/A,,Overcast,0,2012-11-07 14:32:00
8:53 AM,36.0,35.1,97,30.10,0.5,Variable,3.5,-,N/A,Fog,Fog,0,2012-11-07 14:53:00
9:36 AM,37.4,35.6,93,30.07,1.0,WSW,3.5,-,N/A,,Overcast,250,2012-11-07 15:36:00
9:53 AM,37.0,36.0,96,30.11,1.8,West,3.5,-,N/A,,Overcast,270,2012-11-07 15:53:00
10:12 AM,37.4,35.6,93,30.08,3.0,West,3.5,-,N/A,,Overcast,270,2012-11-07 16:12:00
10:53 AM,37.0,36.0,96,30.12,10.0,Calm,Calm,-,N/A,,Overcast,0,2012-11-07 16:53:00
11:53 AM,37.9,36.0,93,30.11,10.0,Calm,Calm,-,N/A,,Overcast,0,2012-11-07 17:53:00
12:21 PM,37.4,35.6,93,30.06,10.0,SW,3.5,-,N/A,,Overcast,230,2012-11-07 18:21:00
12:53 PM,39.0,36.0,89,30.09,10.0,Calm,Calm,-,N/A,,Overcast,0,2012-11-07 18:53:00
1:53 PM,39.9,35.1,83,30.09,10.0,Calm,Calm,-,N/A,,Overcast,0,2012-11-07 19:53:00
2:29 PM,39.2,35.6,87,30.05,10.0,Calm,Calm,-,N/A,,Overcast,0,2012-11-07 20:29:00
2:53 PM,39.9,35.1,83,30.10,10.0,Calm,Calm,-,N/A,,Overcast,0,2012-11-07 20:53:00
3:31 PM,39.2,35.6,87,30.06,10.0,Calm,Calm,-,N/A,,Overcast,0,2012-11-07 21:31:00
3:53 PM,39.9,35.1,83,30.11,10.0,Calm,Calm,-,N/A,,Overcast,0,2012-11-07 21:53:00
4:02 PM,39.2,35.6,87,30.07,10.0,Calm,Calm,-,N/A,,Overcast,0,2012-11-07 22:02:00
4:53 PM,37.9,36.0,93,30.12,10.0,Calm,Calm,-,N/A,,Overcast,0,2012-11-07 22:53:00
5:53 PM,37.0,35.1,93,30.12,10.0,Calm,Calm,-,N/A,,Overcast,0,2012-11-07 23:53:00
6:53 PM,36.0,34.0,93,30.12,7.0,Calm,Calm,-,N/A,,Overcast,0,2012-11-08 00:53:00
7:53 PM,37.0,35.1,93,30.11,9.0,Calm,Calm,-,N/A,,Overcast,0,2012-11-08 01:53:00
8:53 PM,37.0,35.1,93,30.11,10.0,Calm,Calm,-,N/A,,Overcast,0,2012-11-08 02:53:00
9:53 PM,37.0,35.1,93,30.10,10.0,Calm,Calm,-,N/A,,Overcast,0,2012-11-08 03:53:00
10:53 PM,37.0,34.0,89,30.09,10.0,South,3.5,-,N/A,,Overcast,190,2012-11-08 04:53:00
11:53 PM,36.0,33.1,89,30.10,10.0,South,3.5,-,N/A,,Partly Cloudy,190,2012-11-08 05:53:00